Date,TemperatureHighF,TemperatureAvgF,TemperatureLowF,DewpointHighF,DewpointAvgF,DewpointLowF,HumidityHigh,HumidityAvg,HumidityLow,PressureMaxIn,PressureMinIn,WindSpeedMaxMPH,WindSpeedAvgMPH,GustSpeedMaxMPH,PrecipitationSumIn
2013-10-1,71.9,58.3,42.8,44.2,39.4,31.6,82,53,29,29.76,29.45,20,4,23,0.00
2013-10-2,66.9,55.0,43.1,47.7,39.9,35.4,89,60,36,29.73,29.59,21,4,21,0.00
2013-10-3,53.7,48.7,44.5,45.1,41.8,35.5,92,78,58,29.68,29.59,17,5,18,0.06
2013-10-4,45.2,34.9,32.1,43.0,33.1,30.3,95,93,90,30.10,29.62,40,13,41,0.90
2013-10-5,45.9,38.7,31.9,30.6,27.6,23.8,93,66,42,30.07,29.97,37,18,45,0.09
2013-10-6,63.6,52.3,43.4,39.6,34.3,25.3,73,51,37,30.03,29.90,35,12,36,0.00
2013-10-7,82.5,57.3,35.3,44.3,37.5,31.4,88,54,20,29.93,29.55,15,3,16,0.00
2013-10-8,79.0,59.4,44.8,45.7,38.9,32.0,76,50,19,29.56,29.39,11,2,13,0.00
2013-10-9,60.5,51.7,44.4,46.2,40.9,35.7,79,67,57,29.78,29.48,16,4,17,0.00
2013-10-10,54.9,48.0,38.9,48.6,41.9,35.2,91,79,71,29.72,29.03,17,3,19,0.09
2013-10-11,52.7,48.0,44.1,49.3,40.1,32.3,93,75,56,29.90,28.96,45,17,52,1.17
2013-10-12,58.7,46.7,34.2,43.1,37.0,29.4,87,70,48,30.05,29.88,15,3,19,0.00
2013-10-13,65.2,53.0,41.1,46.5,41.6,35.9,89,66,48,29.99,29.67,22,7,25,0.08
2013-10-14,52.2,44.5,37.3,49.4,39.5,29.2,90,83,70,30.04,29.51,34,14,40,0.31
2013-10-15,41.5,38.6,35.7,30.3,29.1,27.9,77,68,61,30.17,30.03,33,13,39,0.00
2013-10-16,55.2,42.4,29.1,34.5,27.4,22.3,89,60,28,30.06,29.80,17,4,20,0.00
2013-10-17,45.2,40.8,37.1,32.2,29.7,26.5,76,65,55,30.01,29.82,22,8,23,0.00
2013-10-18,45.2,38.7,33.9,32.6,27.7,22.4,88,66,41,30.08,29.93,25,7,28,0.01
2013-10-19,60.9,47.9,31.9,32.5,29.2,26.3,82,51,30,29.94,29.63,26,8,30,0.00
2013-10-20,51.9,46.7,40.4,38.2,34.0,30.0,80,62,44,29.94,29.61,24,10,26,0.01
2013-10-21,57.6,47.3,33.9,36.9,33.6,29.2,86,61,40,29.98,29.80,24,5,31,0.00
2013-10-22,65.2,54.7,42.1,39.8,36.7,34.3,79,52,35,29.91,29.77,6,0,8,0.00
2013-10-23,63.8,49.3,35.2,40.6,36.4,31.4,88,64,33,30.07,29.83,21,6,23,0.00
2013-10-24,57.1,41.8,29.6,45.2,35.5,27.6,94,80,54,30.21,30.03,11,2,17,0.00
2013-10-25,69.3,48.1,30.1,42.8,34.8,27.8,93,65,26,30.07,29.82,17,4,17,0.00
2013-10-26,65.9,51.4,35.0,40.5,35.1,29.2,82,56,31,30.13,29.82,11,2,12,0.00
2013-10-27,70.5,51.4,34.5,37.6,31.3,25.8,83,52,20,29.84,29.55,25,4,25,0.00
2013-10-28,45.4,32.7,30.0,34.9,29.3,27.2,93,87,66,30.07,29.69,21,7,22,0.00
2013-10-29,36.4,33.8,31.5,34.6,32.0,29.7,94,93,91,30.03,29.84,10,3,11,0.04
2013-10-30,53.2,42.4,34.4,40.0,34.1,30.8,94,75,44,29.88,29.58,23,7,25,0.06
2013-10-31,54.4,47.4,40.4,38.6,31.3,26.9,84,54,39,29.66,29.50,36,18,39,0.01